Wind_Speed
33 34 35 34 34 33 32 31 30 31 31 30 31 31 31 32 32 33 33 33 34 34 34 34 34 34 34 34 34 34 35 35 35 35 35 36 36 36 35 35 36 35 36
34 34 35 35 35 35 35 34 33 33 33 32 32 32 32 32 33 33 34 34 34 35 35 35 35 35 35 35 35 36 36 36 36 37 37 37 37 37 37 37 37 37 37
34 34 34 34 34 35 35 34 33 33 33 33 33 33 33 33 33 34 35 35 35 36 36 36 36 37 37 36 36 37 37 37 37 37 38 38 38 38 38 39 38 38 38
34 34 34 34 34 34 34 35 34 34 33 34 34 34 34 34 35 35 36 36 36 36 36 36 37 38 37 37 37 38 38 38 38 38 39 39 39 39 39 39 39 39 39
35 34 34 34 34 34 35 36 36 35 34 34 35 35 35 35 35 36 37 37 36 36 36 37 37 38 38 39 39 39 39 39 39 39 39 39 39 40 40 40 40 40 39
35 35 35 36 35 36 36 37 36 36 36 35 36 36 36 36 36 37 37 37 37 37 37 38 38 39 39 40 40 40 40 40 40 40 40 40 41 41 41 41 41 41 41
35 35 36 36 36 36 37 37 37 37 37 36 36 37 37 37 38 38 38 38 38 38 38 39 39 40 40 40 40 41 41 41 41 41 42 42 42 42 42 42 42 42 42
36 35 36 36 36 36 37 37 37 38 37 37 37 37 38 39 39 39 39 39 39 39 39 39 39 40 40 40 39 39 40 41 42 43 43 43 43 43 43 43 43 44 44
38 38 36 36 36 37 37 37 37 38 37 37 38 39 39 39 40 40 40 40 39 39 39 39 40 40 40 39 40 40 40 41 41 42 43 43 43 44 44 45 45 45 45
39 38 38 38 37 37 37 37 37 37 37 37 38 39 40 40 41 41 40 40 40 40 40 40 40 40 40 40 40 40 41 41 42 43 43 44 44 44 44 45 45 45 45
38 38 38 38 38 38 37 38 38 38 38 38 38 39 40 40 40 41 40 41 41 41 41 40 40 40 41 41 41 41 41 42 43 44 44 43 44 44 45 46 45 45 45
39 39 38 38 39 39 39 38 39 38 39 39 39 40 40 40 40 40 40 41 41 41 41 41 41 41 42 42 42 42 42 43 43 44 44 44 43 43 44 45 46 45 46
40 40 40 39 39 39 40 40 39 39 39 40 41 41 41 41 41 40 40 39 40 40 41 42 42 42 43 43 43 43 43 43 43 44 44 44 44 44 44 44 45 46 46
39 40 40 41 40 40 41 41 41 40 40 40 41 41 41 41 41 40 40 39 40 40 41 41 42 42 43 43 43 43 43 43 43 44 44 44 45 44 44 44 45 46 46
40 40 41 41 41 41 41 41 41 40 40 40 41 41 41 41 41 41 40 39 39 39 39 40 41 41 41 41 41 42 42 43 43 43 43 43 43 43 42 42 43 43 43
40 41 41 41 41 41 41 41 41 41 41 41 41 40 40 40 40 40 40 39 39 40 39 39 40 40 40 40 41 41 42 41 41 41 40 40 41 40 41 39 40 40 41
40 41 41 42 42 41 41 41 41 41 41 41 41 41 40 41 40 40 41 41 41 41 41 40 41 41 41 41 41 41 41 40 39 39 38 38 38 38 38 38 39 39 40
40 40 41 41 42 42 41 41 42 41 41 42 41 41 42 42 42 42 42 42 42 42 42 42 41 41 41 41 41 40 40 39 38 37 37 37 37 37 38 38 38 38 38
40 40 40 41 41 41 41 41 41 41 42 42 41 41 42 43 43 43 43 43 42 42 42 41 41 41 41 40 40 40 39 39 39 38 37 36 36 37 38 38 38 38 37
40 40 39 40 41 41 41 41 41 41 41 41 41 41 42 43 43 43 43 42 42 42 41 41 40 40 40 40 40 40 39 39 39 38 38 37 37 37 38 37 37 38 38
39 39 40 40 40 41 41 41 41 41 40 40 41 41 42 42 42 42 41 41 41 41 40 40 40 40 39 40 40 40 39 38 38 38 37 37 37 37 38 38 38 38 38
38 39 39 39 38 38 39 40 40 41 40 40 41 41 41 41 40 39 39 39 40 39 39 39 39 39 39 38 39 39 39 38 38 38 38 38 38 38 38 39 38 37 37
37 37 38 38 37 37 38 38 39 40 40 40 41 41 40 39 39 38 38 38 39 39 39 38 38 38 38 38 39 38 38 38 37 37 37 37 37 37 37 36 36 35 34
36 36 37 37 38 39 39 40 39 39 39 40 40 39 39 38 38 38 38 38 38 38 39 39 39 39 39 38 38 38 37 36 36 36 36 36 36 35 34 34 34 33 33
36 36 36 37 37 38 39 39 39 38 38 38 38 38 38 38 38 38 38 38 38 38 38 39 39 39 39 38 38 37 37 36 36 35 35 34 34 34 33 33 33 33 33
36 36 36 37 37 37 37 37 38 38 38 37 37 37 37 37 37 37 37 37 37 37 38 38 38 38 39 38 37 37 36 36 35 35 34 34 33 33 33 33 33 33 33
Wind_Direction
253 255 255 257 257 258 259 260 262 262 262 264 265 266 268 270 271 272 272 273 274 275 275 276 276 277 278 278 278 278 278 277 275 274 274 273 273 274 274 274 274 275 277
254 256 257 257 257 258 260 261 262 262 262 264 265 267 268 269 271 272 273 274 275 275 275 275 276 276 277 278 278 277 277 277 277 275 274 273 273 273 273 274 274 274 276
255 256 257 258 258 258 260 261 261 262 263 264 265 267 268 270 272 273 274 275 275 276 275 275 275 276 276 277 277 278 277 277 277 276 274 274 274 273 273 273 274 274 275
255 257 257 256 257 258 260 260 262 262 264 265 266 268 269 270 272 273 275 275 276 276 276 276 276 276 275 276 277 277 278 277 277 276 274 274 274 274 273 273 273 274 274
255 256 256 255 256 258 259 261 262 262 265 266 267 268 269 270 271 273 275 275 276 277 277 277 277 276 276 276 277 277 278 277 277 276 275 274 273 273 273 273 273 273 274
255 255 255 255 256 258 259 261 263 264 266 266 267 268 269 270 272 274 275 275 276 277 277 276 276 277 277 277 278 277 277 277 276 276 275 274 273 272 272 272 272 272 273
255 255 256 256 257 259 260 262 264 265 266 267 268 269 269 270 272 274 275 276 277 277 278 278 278 278 278 279 279 278 277 276 276 275 275 275 274 272 271 271 271 272 273
256 256 255 256 258 260 262 262 264 265 267 269 271 272 271 270 273 273 274 276 277 278 279 280 279 279 279 279 280 279 279 278 277 276 275 275 274 273 272 272 272 272 272
255 255 255 257 259 261 262 262 264 267 268 270 272 273 274 273 273 273 274 275 276 277 278 279 279 279 279 280 280 280 281 281 280 278 277 276 275 274 273 273 272 271 271
256 256 257 258 259 260 261 262 263 266 268 270 273 274 274 274 274 273 273 274 274 276 278 279 279 278 279 280 280 280 281 281 281 280 279 277 277 275 274 273 273 271 271
256 257 258 258 259 259 260 261 263 265 268 271 273 274 274 275 275 273 273 274 275 276 277 279 278 278 279 280 280 281 281 282 281 281 280 278 278 276 274 273 272 272 271
257 258 258 258 259 260 262 263 264 266 268 270 273 274 275 276 275 274 274 275 276 276 277 278 278 278 279 281 281 281 281 282 281 282 280 279 279 277 275 274 273 272 272
258 258 258 259 260 261 262 264 266 267 268 270 272 274 274 276 276 275 275 276 277 277 278 279 278 278 279 280 281 282 282 282 282 281 281 279 279 278 276 275 274 273 272
257 258 259 260 261 262 264 265 266 268 270 272 274 275 274 275 275 275 276 277 277 278 279 279 279 279 280 281 282 282 283 283 283 282 281 280 278 278 277 276 275 274 272
257 258 259 261 262 263 264 265 267 269 272 274 276 276 274 275 275 276 277 277 278 279 280 280 280 280 280 282 282 282 283 283 283 283 282 281 279 278 277 275 275 275 273
258 258 259 261 262 262 265 266 267 269 271 274 275 275 274 276 275 276 277 278 278 280 281 280 280 281 281 282 283 283 282 283 283 283 283 281 280 279 279 277 276 276 276
258 259 259 260 262 263 264 265 267 269 271 273 273 274 275 276 275 275 277 278 278 279 280 280 281 281 282 283 284 283 283 283 283 282 283 282 281 280 281 280 279 278 277
259 260 260 261 262 263 264 266 267 268 271 273 273 274 275 277 276 276 277 278 278 280 280 281 282 282 283 283 283 283 283 283 282 282 282 282 281 281 281 282 281 280 279
258 260 261 263 263 264 266 267 268 269 271 272 272 274 276 277 277 276 277 277 278 280 281 281 282 282 282 283 283 283 283 282 282 281 281 281 282 282 283 283 281 280 281
259 259 262 263 264 265 266 267 269 270 271 272 273 274 276 278 277 277 277 277 278 280 280 281 281 282 282 282 283 282 281 282 281 280 281 281 283 283 283 283 282 281 282
259 259 262 264 264 265 266 267 269 270 271 272 274 275 276 277 276 276 276 277 278 279 279 280 280 281 281 281 281 281 280 280 280 280 280 280 281 282 282 283 283 283 283
260 260 261 263 264 265 266 268 269 270 271 273 274 275 276 276 275 276 276 277 277 278 278 279 279 279 280 280 280 280 279 279 279 279 280 280 280 281 282 283 283 283 283
260 261 262 263 264 264 266 269 270 271 271 272 273 275 277 275 274 276 277 277 278 278 277 278 279 279 280 280 279 279 278 279 279 279 279 280 281 282 282 282 283 282 283
261 263 264 264 265 265 267 268 269 271 272 273 274 275 276 275 275 276 276 277 277 277 277 276 277 278 278 278 279 279 278 278 279 279 280 281 282 282 281 280 281 282 283
261 263 263 265 267 267 267 268 269 272 273 274 275 275 276 276 275 276 276 276 276 276 277 277 278 279 279 279 279 278 278 278 279 280 281 282 282 281 280 280 281 281 283
261 263 264 265 267 267 267 268 270 271 273 274 275 276 276 276 275 275 276 277 277 277 277 278 279 279 279 278 278 278 279 279 279 280 281 282 281 280 279 279 279 280 282
Height
5789 5790 5791 5792 5793 5793 5794 5795 5796 5796 5797 5797 5797 5797 5797 5797 5797 5796 5795 5795 5794 5793 5792 5791 5790 5789 5788 5787 5786 5785 5784 5783 5783 5782 5781 5781 5780 5780 5780 5780 5779 5779 5778
5781 5782 5783 5785 5786 5787 5787 5788 5789 5790 5790 5790 5790 5790 5790 5790 5789 5789 5788 5787 5786 5785 5784 5783 5782 5781 5780 5778 5777 5776 5775 5774 5773 5773 5772 5772 5772 5771 5771 5771 5770 5770 5769
5774 5775 5776 5777 5778 5779 5780 5781 5781 5782 5782 5783 5783 5783 5782 5782 5782 5781 5780 5779 5778 5777 5776 5775 5773 5772 5771 5770 5769 5768 5766 5765 5764 5763 5763 5763 5762 5762 5762 5762 5761 5761 5760
5766 5767 5768 5770 5771 5772 5773 5774 5774 5775 5775 5775 5775 5775 5775 5774 5774 5773 5772 5771 5770 5769 5768 5766 5765 5763 5762 5761 5760 5759 5757 5756 5755 5754 5753 5753 5752 5752 5752 5752 5752 5751 5751
5758 5759 5760 5762 5763 5764 5765 5766 5767 5767 5767 5767 5767 5767 5767 5766 5765 5764 5763 5762 5761 5760 5759 5758 5756 5755 5753 5752 5750 5749 5748 5746 5745 5744 5743 5743 5742 5742 5742 5742 5742 5742 5741
5750 5751 5752 5753 5755 5756 5757 5758 5758 5759 5759 5759 5759 5759 5759 5758 5757 5756 5755 5754 5753 5751 5750 5749 5747 5746 5744 5742 5741 5739 5738 5737 5735 5734 5733 5732 5732 5732 5732 5732 5732 5732 5732
5742 5743 5744 5745 5747 5748 5749 5749 5750 5750 5750 5751 5751 5751 5751 5750 5749 5748 5746 5745 5744 5743 5741 5739 5738 5736 5735 5733 5731 5730 5728 5727 5725 5724 5723 5722 5722 5721 5721 5721 5722 5721 5721
5734 5735 5736 5737 5738 5740 5740 5741 5741 5742 5742 5742 5742 5742 5742 5742 5741 5739 5738 5736 5735 5733 5732 5730 5728 5727 5725 5724 5722 5720 5719 5717 5715 5714 5713 5712 5711 5711 5710 5710 5710 5711 5710
5725 5726 5728 5729 5730 5731 5731 5732 5733 5734 5734 5733 5733 5733 5732 5732 5732 5731 5729 5727 5726 5724 5723 5721 5719 5717 5716 5714 5713 5711 5709 5707 5705 5703 5702 5701 5700 5699 5699 5699 5699 5699 5699
5717 5718 5719 5720 5721 5722 5723 5724 5724 5725 5724 5724 5724 5723 5722 5721 5721 5721 5720 5718 5716 5715 5714 5712 5710 5708 5707 5705 5703 5701 5699 5697 5695 5693 5691 5690 5689 5688 5687 5687 5687 5687 5686
5708 5709 5710 5711 5712 5713 5714 5714 5715 5715 5715 5715 5715 5714 5713 5712 5710 5710 5710 5708 5706 5705 5704 5702 5700 5699 5697 5695 5693 5691 5689 5687 5685 5683 5681 5679 5677 5677 5676 5676 5675 5674 5674
5698 5699 5700 5701 5702 5703 5704 5705 5705 5706 5706 5706 5705 5704 5703 5703 5701 5700 5699 5699 5697 5696 5694 5692 5691 5689 5687 5685 5683 5681 5679 5677 5674 5672 5670 5668 5667 5665 5664 5664 5663 5662 5661
5689 5690 5691 5692 5693 5694 5695 5695 5696 5696 5696 5696 5696 5695 5694 5693 5691 5690 5689 5689 5687 5686 5684 5683 5681 5679 5677 5675 5673 5670 5668 5666 5664 5661 5659 5657 5656 5654 5653 5651 5651 5650 5649
5679 5680 5681 5682 5683 5684 5685 5686 5686 5686 5686 5686 5686 5685 5684 5683 5682 5680 5679 5679 5678 5676 5675 5673 5671 5669 5666 5664 5662 5660 5657 5655 5653 5650 5648 5646 5644 5642 5641 5639 5638 5637 5636
5670 5671 5672 5673 5674 5675 5675 5676 5676 5677 5676 5676 5676 5675 5674 5673 5671 5670 5669 5668 5668 5666 5665 5663 5660 5658 5656 5654 5651 5649 5646 5644 5641 5639 5637 5634 5632 5631 5629 5627 5626 5625 5624
5660 5661 5662 5663 5664 5664 5665 5666 5666 5667 5667 5666 5666 5665 5663 5662 5661 5660 5659 5658 5657 5655 5654 5653 5650 5648 5645 5643 5640 5638 5636 5633 5630 5628 5625 5623 5621 5619 5618 5616 5614 5613 5612
5649 5650 5652 5653 5654 5654 5655 5656 5656 5656 5656 5656 5655 5654 5653 5652 5651 5649 5648 5647 5646 5644 5643 5642 5639 5637 5635 5632 5630 5627 5625 5622 5620 5617 5615 5612 5611 5609 5608 5606 5605 5603 5602
5639 5640 5642 5643 5643 5644 5645 5645 5646 5646 5646 5645 5645 5644 5643 5641 5640 5639 5638 5636 5635 5633 5632 5630 5628 5626 5623 5621 5619 5616 5614 5612 5610 5607 5605 5603 5601 5599 5598 5596 5594 5593 5591
5629 5630 5631 5632 5633 5634 5634 5634 5635 5635 5635 5634 5634 5633 5632 5630 5629 5628 5626 5625 5623 5622 5620 5618 5617 5614 5612 5610 5607 5605 5603 5601 5599 5597 5595 5593 5591 5589 5588 5586 5584 5583 5581
5619 5620 5621 5622 5622 5623 5623 5624 5624 5624 5624 5623 5622 5622 5620 5619 5618 5616 5615 5613 5612 5610 5608 5607 5605 5603 5601 5599 5597 5595 5593 5590 5588 5587 5585 5583 5581 5579 5578 5576 5574 5572 5571
5608 5609 5610 5611 5611 5612 5613 5613 5613 5613 5612 5612 5611 5610 5609 5607 5606 5605 5603 5602 5600 5599 5597 5595 5594 5592 5590 5588 5586 5584 5582 5580 5578 5576 5575 5573 5571 5570 5567 5565 5564 5562 5560
5597 5599 5599 5600 5601 5601 5602 5602 5602 5602 5601 5601 5600 5599 5597 5596 5594 5593 5592 5590 5589 5587 5586 5584 5583 5581 5579 5577 5575 5573 5571 5570 5568 5567 5564 5563 5561 5559 5557 5555 5554 5552 5550
5587 5588 5589 5589 5590 5590 5590 5591 5590 5590 5590 5589 5588 5587 5586 5584 5583 5582 5581 5579 5578 5576 5575 5574 5572 5570 5568 5567 5565 5563 5561 5559 5557 5556 5554 5552 5550 5549 5547 5545 5543 5541 5540
5577 5578 5578 5579 5579 5580 5580 5580 5579 5579 5579 5578 5577 5576 5574 5573 5572 5571 5570 5569 5567 5566 5564 5563 5561 5559 5557 5555 5554 5552 5550 5548 5547 5545 5543 5542 5540 5538 5536 5535 5533 5532 5530
5566 5567 5568 5568 5569 5569 5568 5568 5568 5568 5567 5567 5566 5565 5563 5562 5561 5560 5559 5558 5557 5555 5553 5551 5550 5548 5546 5545 5543 5541 5540 5538 5537 5535 5533 5531 5530 5528 5527 5525 5524 5522 5520
5556 5557 5557 5558 5558 5558 5558 5557 5557 5557 5557 5556 5555 5554 5552 5551 5550 5549 5548 5546 5545 5544 5542 5540 5538 5537 5535 5534 5532 5530 5529 5527 5526 5525 5523 5521 5520 5518 5517 5516 5514 5513 5511